Terminal Aerodrome Forecast
Issued by NWS St Louis, MO

Home | Current Version | Previous Version | Text Only | Print | Product List | Glossary On
Versions: 1 2 3 4 5 6 7 8 9 10 11 12 13 14 15 16 17 18 19 20 21 22 23 24 25 26 27
000
FTUS43 KLSX 201131
TAFSTL
TAF
KSTL 201131Z 2012/2118 12007KT P6SM VCTS SCT050CB BKN120
     FM201300 15006KT P6SM SCT040 BKN250
     FM201600 16007KT P6SM SCT050
     FM211200 18004KT P6SM SCT110=

USA.gov is the U.S. government's official web portal to all federal, state and local government web resources and services.